Regional Weather Roundup
Issued by NWS

Home | Current Version | Previous Version | Text Only | Print | Product List | Glossary On
Versions: 1 2 3 4 5 6 7 8 9 10 11 12 13 14 15 16 17 18 19 20 21 22 23 24 25 26 27 28 29 30 31 32 33 34 35 36 37 38 39 40 41 42 43 44 45 46 47 48 49 50
000
ASUS44 KFWD 010510
RWRTX
NORTH TEXAS HOURLY WEATHER ROUNDUP
NATIONAL WEATHER SERVICE FORT WORTH TX
1200 AM CDT TUE SEP 01 2015

NOTE: "FAIR" INDICATES FEW OR NO CLOUDS BELOW 12,000 FEET WITH NO
SIGNIFICANT WEATHER AND/OR OBSTRUCTIONS TO VISIBILITY.

TXZ118-119-010600-
DALLAS/FORT WORTH METROPLEX

CITY           SKY/WX    TMP DP  RH WIND       PRES   REMARKS
DFW AIRPORT    PTCLDY    83  64  52 SE14      29.99R
DALLAS LOVE    PTCLDY    83  64  52 SE13      29.99R
FTW MEACHAM    CLEAR     84  65  52 SE10      29.99R
DAL-EXECUTIVE  CLEAR     81  65  58 SE8       30.00R
FTW-ALLIANCE   CLEAR     81  65  58 SE7       29.99R
FTW-NAS-JRB    CLEAR     84  66  54 SE9       30.00R
FTW-SPINKS     CLEAR     78  66  68 SE6       30.02R
ARLINGTON      CLEAR     82  65  56 SE8       30.00R
GRAND PRAIRIE  CLEAR     82  67  60 SE7       30.01R
ADDISON        CLEAR     83  66  56 SE9       30.01S
MESQUITE       CLEAR     79  65  61 SE7       30.00R
LANCASTER      CLEAR     80  64  58 SE6       30.01R
$$

TXZ091>094-102>105-117-120-121-131>134-010600-
NORTH CENTRAL TEXAS

CITY           SKY/WX    TMP DP  RH WIND       PRES   REMARKS
SHRMAN/DENISON CLEAR     80  65  61 SE9       30.01S
GAINESVILLE    CLEAR     76  62  61 SE6       30.02S
BOWIE          CLEAR     76  63  62 CALM      30.01R
BRIDGEPORT     CLEAR     77  65  68 SE6       30.01R
DECATUR        CLEAR     79  62  55 SE8       30.01R
DENTON         CLEAR     81  65  58 SE6       29.99R
MCKINNEY       CLEAR     79  66  64 SE5       30.00R
GREENVILLE     CLEAR     73  63  68 SE3       30.01R
ROCKWALL       CLEAR     79  66  64 SE7       29.99S
TERRELL        CLEAR     79  67  66 SE8       30.01R
WAXAHACHIE     CLEAR     79  68  68 S9        30.02R
CLEBURNE         N/A     79  70  73 S8        30.02R
GRANBURY       CLEAR     82  67  61 SE6       30.01R
$$

TXZ083>090-098>101-113>116-127>130-139>142-154-155-010600-
WESTERN NORTH TEXAS

CITY           SKY/WX    TMP DP  RH WIND       PRES   REMARKS
WICHITA FALLS  CLEAR     79  63  57 SE12      29.98R
WF-KICKAPOO    CLEAR     82  63  53 SE8       29.99S
VERNON         CLEAR     83  56  39 SE12      29.98R
ABILENE        CLEAR     78  60  53 SE9       30.01R
ABILENE-DYESS  CLEAR     75  59  56 SE12      29.99R
BRECKENRIDGE   CLEAR     79  61  53 SE8       29.99R
GRAHAM         CLEAR     80  63  55 SE8       29.98S
MINERAL WELLS  CLEAR     78  64  61 SE9       29.98R
STEPHENVILLE   CLEAR     77  66  69 S3        30.04R
COMANCHE       CLEAR     78  67  67 SE10      30.02R
COLEMAN        CLEAR     80  60  51 SE10      30.01S
BRADY          CLEAR     79  61  53 SE7       30.03R
$$

TXZ143>147-156>162-174-175-010600-
CENTRAL TEXAS

CITY           SKY/WX    TMP DP  RH WIND       PRES   REMARKS
WACO           CLEAR     80  68  66 S13       30.01R
WACO-MCGREGOR  CLEAR     78  69  73 S10       30.01R
HILLSBORO      CLEAR     79  66  64 SE9       30.01R
CORSICANA      CLEAR     79  70  74 S6        30.02R
MEXIA          CLEAR     76  70  81 SE9       30.01R
HEARNE         CLEAR     76  71  82 SE5       30.03R
CAMERON        CLEAR     77  70  79 S6        30.02R
TEMPLE         CLEAR     77  64  65 S12       30.02R
KILLEEN        CLEAR     77  67  71 S9        30.02R
KILLEEN-SKYLRK CLEAR     79  64  61 S7        30.01R
FORT HOOD      CLEAR     77  67  71 S8        30.01R
GATESVILLE     CLEAR     79  66  65 S8        30.04R
HAMILTON       CLEAR     78  67  68 S10       30.04R
$$

TXZ095>097-106>112-122>126-135>138-148>153-164>167-010600-
EAST TEXAS

CITY           SKY/WX    TMP DP  RH WIND       PRES   REMARKS
PARIS          CLEAR     73  61  64 E7        30.02S
SULPHUR SPRNGS CLEAR     80  64  57 SE5       30.04R
MOUNT PLEASANT CLEAR     74  65  74 CALM      30.03S
MINEOLA        CLEAR     79  68  69 SE3       30.02R
TYLER          CLEAR     77  67  71 S7        30.02R
LONGVIEW       CLEAR     75  67  76 S3        30.01S
MARSHALL       PTCLDY    73  70  88 CALM      30.04S
ATHENS         CLEAR     73  66  78 SE3       30.01R
PALESTINE      PTCLDY    77  69  76 SE3       30.03S
JACKSONVILLE   CLEAR     77  67  72 S6        30.06R
HENDERSON      CLEAR     72  66  83 CALM      30.04S
CENTER         FAIR      74  67  78 CALM      30.03R
NACOGDOCHES    CLEAR     72  66  83 SE3       30.03R
LUFKIN         PTCLDY    74  69  85 S5        30.03R
$$

SUPPLEMENTAL OBSERVATIONS (CENTRAL)

CITY           SKY/WX    TMP DP  RH WIND       PRES   REMARKS
CADDO GRASSLND   N/A     73  64  73 SE2         N/A
PAT MAYSE LAKE   N/A     79  64  61 E8          N/A
MCGREGOR         N/A     79  68  69 S9          N/A
TEMPLE           N/A     75  66  73 S6          N/A
$$

SUPPLEMENTAL OBSERVATIONS (WEST)

CITY           SKY/WX    TMP DP  RH WIND       PRES   REMARKS
MILLERS CREEK    N/A     81  63  54 SE12        N/A
POSSUM KINGDOM   N/A     81  59  47 SE8         N/A
LBJ GRASSLAND    N/A     81  63  54 SE7         N/A
GRANBURY         N/A     81  66  61 SE7         N/A
HAMBY            N/A     81  59  47 SE8         N/A
IVIE RESERVOIR   N/A     79  57  47 SE8         N/A
COLORADO BEND    N/A     79  66  65 SW12        N/A
$$

SUPPLEMENTAL OBSERVATIONS (EAST)

CITY           SKY/WX    TMP DP  RH WIND       PRES   REMARKS
TEXARKANA        N/A     70  68  94 CALM        N/A
LINDEN           N/A     72  66  83 CALM        N/A
LUFKIN           N/A     73  68  83 MISG        N/A
N SABINE NF      N/A     73  66  78 MISG        N/A
$$

SUPPLEMENTAL OBSERVATIONS ARE A COLLECTION OF AUTOMATED INSTRUMENTS
THAT ARE MAINTAINED BY A VARIETY OF FEDERAL AND STATE AGENCIES.
CERTAIN ELEMENTS...SUCH AS HUMIDITY VALUES AND SUSTAINED WIND
SPEEDS...MAY BE APPROXIMATED.




USA.gov is the U.S. government's official web portal to all federal, state and local government web resources and services.